Change the Weather History Date:

Monday, February 25, 2013

  Actual Average Record
Temperature  
Mean Temperature 37 °F -  
Max Temperature 44 °F 42 °F 52 °F (2002)
Min Temperature 30 °F 28 °F 12 °F (2015)
Degree Days  
Heating Degree Days 28    
Moisture  
Dew Point 25 °F    
Average Humidity 60    
Maximum Humidity 79    
Minimum Humidity 47    
Precipitation  
Precipitation 0.00 in - - ()
Sea Level Pressure  
Sea Level Pressure 30.13 in    
Wind  
Wind Speed 7 mph (NNW)    
Max Wind Speed 10 mph    
Max Gust Speed 16 mph    
Visibility 10 miles    
Events      
Averages and records for this station are not official NWS values.
T = Trace of Precipitation, MM = Missing Value Source: NWS Daily Summary

Daily Weather History Graph

Daily Weather History Graph

Search for Another Location

Airport or City:

Trip Planner

Search our weather history database for the weather conditions in past years. The results will help you decide how hot, cold, wet, or windy it might be!

Date:

Astronomy

Feb. 25, 2013 Rise Set
Actual Time 6:35 AM EST 5:43 PM EST
Civil Twilight 6:08 AM EST 6:10 PM EST
Nautical Twilight 5:36 AM EST 6:42 PM EST
Astronomical Twilight 5:04 AM EST 7:14 PM EST
Moon 5:54 PM EST (2/25) 6:04 AM EST (2/25)
Length of Visible Light 12h 02m
Length of Day
11h 07m
Full, 100% of the Moon is Illuminated
Feb 25
Full
Feb 25
Full
Mar 4
Last Quarter
Mar 11
New
Mar 19
First Quarter

Hourly Weather History & Observations

Time (EST) Temp. Windchill Dew Point Humidity Pressure Visibility Wind Dir Wind Speed Gust Speed Precip Events Conditions
12:51 AM 33.1 °F 24.9 °F 21.9 °F 64% 29.99 in 10.0 mi NW 10.4 mph - N/A   Clear
1:51 AM 33.1 °F 26.1 °F 21.9 °F 64% 30.01 in 10.0 mi NW 8.1 mph - N/A   Clear
2:51 AM 32.0 °F 24.8 °F 21.9 °F 66% 30.02 in 10.0 mi NW 8.1 mph - N/A   Scattered Clouds
3:51 AM 30.9 °F 26.2 °F 21.9 °F 69% 30.04 in 10.0 mi WNW 4.6 mph - N/A   Clear
4:51 AM 30.9 °F 25.2 °F 23.0 °F 72% 30.04 in 10.0 mi NNW 5.8 mph - N/A   Clear
5:51 AM 30.9 °F - 23.0 °F 72% 30.06 in 10.0 mi Calm Calm - N/A   Clear
6:51 AM 30.0 °F - 24.1 °F 79% 30.08 in 10.0 mi North - - N/A   Clear
7:51 AM 35.1 °F 32.2 °F 26.1 °F 70% 30.11 in 10.0 mi NW 3.5 mph - N/A   Clear
8:51 AM 37.9 °F 30.9 °F 27.0 °F 65% 30.11 in 10.0 mi North 10.4 mph - N/A   Clear
9:51 AM 39.9 °F 34.5 °F 26.1 °F 58% 30.13 in 10.0 mi North 8.1 mph 16.1 mph N/A   Clear
10:51 AM 42.1 °F 39.2 °F 26.1 °F 53% 30.13 in 10.0 mi Variable 4.6 mph - N/A   Mostly Cloudy
11:51 AM 43.0 °F 38.8 °F 26.1 °F 51% 30.13 in 10.0 mi North 6.9 mph - N/A   Mostly Cloudy
12:51 PM 43.0 °F 40.3 °F 25.0 °F 49% 30.14 in 10.0 mi NW 4.6 mph - N/A   Overcast
1:51 PM 44.1 °F 39.5 °F 25.0 °F 47% 30.13 in 10.0 mi North 8.1 mph - N/A   Overcast
2:51 PM 43.0 °F 39.5 °F 27.0 °F 53% 30.15 in 10.0 mi NW 5.8 mph - N/A   Overcast
3:51 PM 43.0 °F 39.5 °F 25.0 °F 49% 30.15 in 10.0 mi NNE 5.8 mph - N/A   Overcast
4:51 PM 42.1 °F 37.7 °F 26.1 °F 53% 30.15 in 10.0 mi NW 6.9 mph - N/A   Overcast
5:51 PM 42.1 °F 39.2 °F 27.0 °F 55% 30.17 in 10.0 mi NW 4.6 mph - N/A   Overcast
6:51 PM 42.1 °F 39.2 °F 28.0 °F 58% 30.19 in 10.0 mi NNW 4.6 mph - N/A   Overcast
7:51 PM 41.0 °F 38.0 °F 28.0 °F 60% 30.21 in 10.0 mi NW 4.6 mph - N/A   Overcast
8:51 PM 41.0 °F 38.0 °F 28.0 °F 60% 30.21 in 10.0 mi NNW 4.6 mph - N/A   Overcast
9:51 PM 39.9 °F 37.8 °F 28.0 °F 63% 30.23 in 10.0 mi NW 3.5 mph - N/A   Overcast
10:51 PM 41.0 °F - 27.0 °F 57% 30.23 in 10.0 mi Calm Calm - N/A   Overcast
11:51 PM 39.0 °F 36.8 °F 28.0 °F 65% 30.22 in 10.0 mi NNE 3.5 mph - N/A   Partly Cloudy